Bismarck, ND

10:13 AM CST on January 22, 2017 (GMT -0600)
Bismarck Municipal

Weather History for KBIS - August, 2012

Change the Weather History Date:

Sunday, August 19, 2012

  Actual Average Record
Temperature  
Mean Temperature 62 °F 69 °F  
Max Temperature 77 °F 83 °F 103 °F (1959)
Min Temperature 47 °F 55 °F 38 °F (1895)
Degree Days  
Heating Degree Days 3 1  
Month to date heating degree days 21 16  
Since 1 June heating degree days 54 126  
Since 1 July heating degree days 21 33  
Cooling Degree Days 0 5  
Month to date cooling degree days 55 125  
Year to date cooling degree days 503 429  
Since 1 June cooling degree days 498 412  
Growing Degree Days 12 (Base 50)    
Moisture  
Dew Point 50 °F    
Average Humidity 66    
Maximum Humidity 93    
Minimum Humidity 38    
Precipitation  
Precipitation 0.00 in 0.07 in 1.07 in (1884)
Month to date precipitation 2.14 1.46  
Year to date precipitation 11.94 12.99  
Snow  
Snow 0.00 in 0.00 in 0.00 in (2002)
Month to date snowfall 0.0 0.0  
Since 1 June snowfall 0.0 0.0  
Since 1 July snowfall 0.0 0.0  
Snow Depth 0.00 in    
Sea Level Pressure  
Sea Level Pressure 30.08 in    
Wind  
Wind Speed 4 mph (ENE)    
Max Wind Speed 10 mph    
Max Gust Speed 15 mph    
Visibility 10 miles    
Events      
T = Trace of Precipitation, MM = Missing Value Source: NWS Daily Summary

Daily Weather History Graph

Daily Weather History Graph

Search for Another Location

Airport or City:

Trip Planner

Search our weather history database for the weather conditions in past years. The results will help you decide how hot, cold, wet, or windy it might be!

Date:

Astronomy

Aug. 19, 2012 Rise Set
Actual Time 6:46 AM CDT 8:45 PM CDT
Civil Twilight 6:13 AM CDT 9:17 PM CDT
Nautical Twilight 5:33 AM CDT 9:58 PM CDT
Astronomical Twilight 4:48 AM CDT 10:42 PM CDT
Moon 9:16 AM CDT (8/19) 9:20 PM CDT (8/19)
Length of Visible Light 15h 04m
Length of Day
13h 58m
Waxing Crescent, 5% of the Moon is Illuminated
Aug 19
Waxing Crescent
Aug 24
First Quarter
Aug 31
Full
Sep 8
Last Quarter
Sep 15
New

Hourly Weather History & Observations

Time (CDT) Temp. Dew Point Humidity Pressure Visibility Wind Dir Wind Speed Gust Speed Precip Events Conditions
12:52 AM 57.0 °F 48.9 °F 74% 30.08 in 10.0 mi Calm Calm - N/A   Scattered Clouds
1:52 AM 55.9 °F 50.0 °F 80% 30.08 in 10.0 mi Calm Calm - N/A   Partly Cloudy
2:52 AM 51.8 °F 48.2 °F 88% 30.09 in 10.0 mi Calm Calm - N/A   Clear
3:52 AM 51.1 °F 48.9 °F 92% 30.09 in 10.0 mi Calm Calm - N/A   Clear
4:52 AM 53.1 °F 48.9 °F 86% 30.10 in 10.0 mi Calm Calm - N/A   Clear
5:52 AM 51.1 °F 48.9 °F 92% 30.10 in 10.0 mi Calm Calm - N/A   Clear
6:52 AM 48.0 °F 46.0 °F 93% 30.12 in 8.0 mi Calm Calm - N/A   Clear
7:52 AM 53.1 °F 50.0 °F 89% 30.13 in 10.0 mi Calm Calm - N/A   Clear
8:52 AM 55.9 °F 52.0 °F 87% 30.13 in 10.0 mi East 5.8 mph - N/A   Clear
9:52 AM 62.1 °F 55.0 °F 78% 30.13 in 10.0 mi ENE 5.8 mph - N/A   Clear
10:52 AM 66.0 °F 54.0 °F 65% 30.13 in 10.0 mi Variable 3.5 mph - N/A   Clear
11:52 AM 69.1 °F 52.0 °F 54% 30.13 in 10.0 mi ESE 4.6 mph - N/A   Clear
12:52 PM 72.0 °F 51.1 °F 48% 30.12 in 10.0 mi NE 5.8 mph - N/A   Clear
1:52 PM 73.9 °F 51.1 °F 45% 30.09 in 10.0 mi Variable 3.5 mph - N/A   Clear
2:52 PM 75.9 °F 48.9 °F 38% 30.08 in 10.0 mi Variable 5.8 mph - N/A   Clear
3:52 PM 73.9 °F 50.0 °F 43% 30.07 in 10.0 mi NE 4.6 mph - N/A   Mostly Cloudy
4:52 PM 75.0 °F 51.1 °F 43% 30.05 in 10.0 mi ENE 8.1 mph - N/A   Mostly Cloudy
5:52 PM 75.0 °F 48.9 °F 40% 30.04 in 10.0 mi East 6.9 mph - N/A   Clear
6:52 PM 75.0 °F 50.0 °F 41% 30.03 in 10.0 mi East 4.6 mph - N/A   Clear
7:52 PM 72.0 °F 53.1 °F 51% 30.02 in 10.0 mi East 5.8 mph - N/A   Clear
8:52 PM 63.0 °F 52.0 °F 67% 30.04 in 10.0 mi East 5.8 mph - N/A   Clear
9:52 PM 61.0 °F 51.1 °F 70% 30.05 in 10.0 mi East 8.1 mph - N/A   Clear
10:52 PM 57.9 °F 50.0 °F 75% 30.06 in 10.0 mi ENE 4.6 mph - N/A   Clear
11:52 PM 55.9 °F 50.0 °F 80% 30.06 in 10.0 mi ENE 5.8 mph - N/A   Clear